N6CTG Weather Reports


Display with metric or nautical units.
time (UTC)temp
F
wind
direction
speed
MPH
gust
MPH
rain 1hr
in
rain 24hr
in
rain mn
in
humidity
%
barometer
mb
20260901074504 62 0 0.0 0.0 0.00 0.00 0.00 78 1011.3
20260901073625 62 0 0.0 0.0 0.00 0.00 0.00 78 1011.2
20260901072704 63 0 0.0 0.0 0.00 0.00 0.00 78 1011.2
20260901071804 63 0 0.0 0.0 0.00 0.00 0.00 77 1011.3
20260901070925 63 0 0.0 0.0 0.00 0.00 0.00 76 1011.2
20260901070004 64 0 0.0 0.0 0.00 0.00 0.00 75 1011.2
20260901065425 64 0 0.0 0.0 0.00 0.00 0.00 75 1011.4
20260901064504 64 0 0.0 0.0 0.00 0.00 0.00 74 1011.3
20260901063604 64 0 0.0 0.0 0.00 0.00 0.00 73 1011.2
20260901062704 65 0 0.0 0.0 0.00 0.00 0.00 73 1011.2
20260901061804 65 0 0.0 0.0 0.00 0.00 0.00 73 1011.2
20260901060925 65 0 0.0 0.0 0.00 0.00 0.00 72 1011.2
20260901060004 66 0 0.0 0.0 0.00 0.00 0.00 72 1011.1
20260901055425 66 0 0.0 0.0 0.00 0.00 0.00 72 1011.1
20260901054504 66 0 0.0 0.0 0.00 0.00 0.00 71 1011.0
20260901053604 66 0 0.0 0.0 0.00 0.00 0.00 71 1011.1
20260901052704 66 0 0.0 0.0 0.00 0.00 0.00 71 1011.1
20260901051804 66 0 0.0 0.0 0.00 0.00 0.00 72 1011.0
20260901050904 67 0 0.0 0.0 0.00 0.00 0.00 74 1010.9
20260901050004 67 0 0.0 0.0 0.00 0.00 0.00 74 1010.8
20260901045404 68 0 0.0 0.0 0.00 0.00 0.00 74 1010.8
20260901044506 68 0 0.0 0.0 0.00 0.00 0.00 74 1010.7
20260901043604 68 0 0.0 0.0 0.00 0.00 0.00 74 1010.9
20260901042704 69 0 0.0 0.0 0.00 0.00 0.00 73 1010.8
20260901041804 69 0 0.0 0.0 0.00 0.00 0.00 73 1011.0
20260901040925 69 0 0.0 0.0 0.00 0.00 0.00 72 1010.9
20260901040025 70 0 0.0 0.0 0.00 0.00 0.00 71 1010.8
20260901035404 70 0 0.0 0.0 0.00 0.00 0.00 71 1010.7
20260901034504 71 0 0.0 0.0 0.00 0.00 0.00 70 1010.6
20260901033604 71 0 0.0 0.0 0.00 0.00 0.00 69 1010.5
20260901032704 72 0 0.0 0.0 0.00 0.00 0.00 68 1010.3
20260901031825 72 237 0.0 2.0 0.00 0.00 0.00 68 1010.2
20260901030904 72 0 0.0 0.0 0.00 0.00 0.00 67 1010.1
20260901030004 73 0 0.0 0.0 0.00 0.00 0.00 64 1010.0
20260901025425 73 248 0.0 1.0 0.00 0.00 0.00 63 1010.0
20260901024525 74 243 0.0 1.0 0.00 0.00 0.00 59 1009.9
20260901023604 74 0 0.0 0.0 0.00 0.00 0.00 57 1009.7
20260901022704 75 252 1.0 3.0 0.00 0.00 0.00 56 1009.6
20260901021825 75 243 2.0 5.0 0.00 0.00 0.00 55 1009.4
20260901020904 76 242 2.0 4.0 0.00 0.00 0.00 52 1009.3
20260901020004 77 238 2.0 4.0 0.00 0.00 0.00 52 1009.2
20260901015425 78 239 3.0 4.0 0.00 0.00 0.00 49 1009.1
20260901014504 79 244 2.0 5.0 0.00 0.00 0.00 45 1009.1
20260901013625 80 253 2.0 5.0 0.00 0.00 0.00 44 1009.0
20260901012704 80 255 3.0 7.0 0.00 0.00 0.00 39 1009.2
20260901011804 80 253 4.0 9.0 0.00 0.00 0.00 37 1009.2
20260901010904 81 244 4.0 8.0 0.00 0.00 0.00 42 1009.2
20260901010004 82 240 4.0 8.0 0.00 0.00 0.00 42 1009.2
20260901005404 82 240 4.0 8.0 0.00 0.00 0.00 38 1009.1
20260901004504 82 253 3.0 8.0 0.00 0.00 0.00 44 1009.1
20260901003625 82 248 4.0 9.0 0.00 0.00 0.00 46 1009.1
20260901002704 82 251 5.0 9.0 0.00 0.00 0.00 47 1009.2
20260901001804 83 243 5.0 9.0 0.00 0.00 0.00 46 1009.2
20260901000925 84 252 4.0 10.0 0.00 0.00 0.00 44 1009.3
20260901000004 84 248 5.0 12.0 0.00 0.00 0.00 43 1009.2
20260831235404 84 244 5.0 10.0 0.00 0.00 0.00 42 1009.2
20260831234504 85 249 4.0 9.0 0.00 0.00 0.00 41 1009.2
20260831233604 85 246 5.0 11.0 0.00 0.00 0.00 41 1009.1
20260831232725 86 249 3.0 7.0 0.00 0.00 0.00 41 1009.0
20260831231804 86 257 4.0 10.0 0.00 0.00 0.00 42 1009.1
20260831230904 86 252 5.0 11.0 0.00 0.00 0.00 41 1009.1
20260831230004 87 260 4.0 8.0 0.00 0.00 0.00 41 1009.1
20260831225404 87 258 4.0 8.0 0.00 0.00 0.00 41 1009.2
20260831224504 87 245 6.0 11.0 0.00 0.00 0.00 41 1009.2
20260831223604 87 257 5.0 11.0 0.00 0.00 0.00 41 1009.3
20260831222725 87 255 6.0 12.0 0.00 0.00 0.00 41 1009.3
20260831221804 87 252 6.0 12.0 0.00 0.00 0.00 41 1009.4
20260831220904 88 260 6.0 12.0 0.00 0.00 0.00 40 1009.4
20260831220004 88 255 4.0 10.0 0.00 0.00 0.00 38 1009.5
20260831215404 88 247 5.0 10.0 0.00 0.00 0.00 37 1009.5
20260831214504 89 245 5.0 11.0 0.00 0.00 0.00 37 1009.4
20260831213604 88 253 4.0 9.0 0.00 0.00 0.00 38 1009.3
20260831212704 88 258 5.0 11.0 0.00 0.00 0.00 40 1009.4
20260831211804 89 244 7.0 12.0 0.00 0.00 0.00 40 1009.6
20260831210904 89 246 6.0 12.0 0.00 0.00 0.00 41 1009.7
20260831210025 90 236 6.0 12.0 0.00 0.00 0.00 40 1009.7
20260831205404 90 237 6.0 12.0 0.00 0.00 0.00 39 1009.8
20260831204504 90 232 4.0 9.0 0.00 0.00 0.00 38 1009.8
20260831203604 90 240 4.0 10.0 0.00 0.00 0.00 38 1009.7
20260831202704 91 214 3.0 10.0 0.00 0.00 0.00 35 1009.8
20260831201804 90 229 4.0 8.0 0.00 0.00 0.00 34 1009.9
20260831200904 90 220 3.0 8.0 0.00 0.00 0.00 32 1009.9
20260831200025 90 231 4.0 10.0 0.00 0.00 0.00 33 1010.0
20260831195404 90 238 2.0 10.0 0.00 0.00 0.00 34 1010.0
20260831194504 90 232 3.0 8.0 0.00 0.00 0.00 33 1010.1
20260831193604 89 229 4.0 10.0 0.00 0.00 0.00 33 1010.2
20260831192704 90 196 1.0 6.0 0.00 0.00 0.00 29 1010.2
20260831191804 89 231 3.0 9.0 0.00 0.00 0.00 31 1010.3
20260831190925 88 256 3.0 8.0 0.00 0.00 0.00 41 1010.3
20260831190004 88 240 4.0 9.0 0.00 0.00 0.00 40 1010.4
20260831185425 88 226 3.0 9.0 0.00 0.00 0.00 39 1010.4
20260831184504 88 239 3.0 10.0 0.00 0.00 0.00 36 1010.4
20260831183604 87 228 4.0 10.0 0.00 0.00 0.00 32 1010.5
20260831182725 87 197 3.0 6.0 0.00 0.00 0.00 33 1010.5
20260831181804 87 233 2.0 7.0 0.00 0.00 0.00 29 1010.6
20260831180925 86 234 4.0 8.0 0.00 0.00 0.00 29 1010.5
20260831180004 86 234 3.0 8.0 0.00 0.00 0.00 25 1010.5
20260831175404 86 226 3.0 6.0 0.00 0.00 0.00 29 1010.3
20260831174504 85 168 2.0 6.0 0.00 0.00 0.00 33 1010.4
20260831173604 84 181 2.0 6.0 0.00 0.00 0.00 35 1010.4
20260831172704 83 218 2.0 6.0 0.00 0.00 0.00 38 1010.5
20260831171804 82 184 2.0 5.0 0.00 0.00 0.00 37 1010.4
20260831170904 81 210 2.0 5.0 0.00 0.00 0.00 42 1010.3
20260831170004 80 228 2.0 5.0 0.00 0.00 0.00 50 1010.2
20260831165404 79 222 2.0 5.0 0.00 0.00 0.00 50 1010.2
20260831164504 78 226 3.0 6.0 0.00 0.00 0.00 57 1010.2
20260831163604 78 233 2.0 6.0 0.00 0.00 0.00 61 1010.2
20260831162704 77 160 0.0 3.0 0.00 0.00 0.00 67 1010.2
20260831161804 75 217 2.0 4.0 0.00 0.00 0.00 69 1010.2
20260831160904 75 226 0.0 4.0 0.00 0.00 0.00 70 1010.3
20260831160004 74 214 0.0 2.0 0.00 0.00 0.00 70 1010.3
20260831155404 74 0 0.0 0.0 0.00 0.00 0.00 73 1010.3
20260831154504 73 0 0.0 0.0 0.00 0.00 0.00 74 1010.3
20260831153625 72 0 0.0 0.0 0.00 0.00 0.00 72 1010.2
20260831152704 71 127 0.0 1.0 0.00 0.00 0.00 78 1010.2
20260831151804 69 0 0.0 0.0 0.00 0.00 0.00 84 1010.2
20260831150904 68 0 0.0 0.0 0.00 0.00 0.00 87 1010.2
20260831150004 67 0 0.0 0.0 0.00 0.00 0.00 89 1010.1
20260831145404 66 0 0.0 0.0 0.00 0.00 0.00 90 1010.1
20260831144504 66 0 0.0 0.0 0.00 0.00 0.00 91 1010.0
20260831143604 66 0 0.0 0.0 0.00 0.00 0.00 91 1009.9
20260831142704 66 0 0.0 0.0 0.00 0.00 0.00 91 1009.9
20260831141825 66 0 0.0 0.0 0.00 0.00 0.00 92 1009.8
20260831140904 64 0 0.0 0.0 0.00 0.00 0.00 92 1009.6
20260831140004 64 0 0.0 0.0 0.00 0.00 0.00 90 1009.5
20260831135404 64 0 0.0 0.0 0.00 0.00 0.00 90 1009.4
20260831134504 64 0 0.0 0.0 0.00 0.00 0.00 90 1009.4
20260831133625 64 0 0.0 0.0 0.00 0.00 0.00 90 1009.3
20260831132704 64 0 0.0 0.0 0.00 0.00 0.00 90 1009.3
20260831131804 64 0 0.0 0.0 0.00 0.00 0.00 90 1009.1
20260831130904 64 0 0.0 0.0 0.00 0.00 0.00 90 1009.0
20260831130004 64 0 0.0 0.0 0.00 0.00 0.00 90 1009.1
20260831125425 64 0 0.0 0.0 0.00 0.00 0.00 90 1009.0
20260831124504 64 0 0.0 0.0 0.00 0.00 0.00 90 1009.0
20260831123604 64 0 0.0 0.0 0.00 0.00 0.00 90 1009.0
20260831122704 64 0 0.0 0.0 0.00 0.00 0.00 90 1009.1
20260831121804 64 0 0.0 0.0 0.00 0.00 0.00 90 1009.0
20260831120904 64 0 0.0 0.0 0.00 0.00 0.00 90 1008.9
20260831120025 64 0 0.0 0.0 0.00 0.00 0.00 90 1009.0
20260831115404 64 0 0.0 0.0 0.00 0.00 0.00 90 1009.1
20260831114504 64 0 0.0 0.0 0.00 0.00 0.00 90 1009.0
20260831113604 64 0 0.0 0.0 0.00 0.00 0.00 90 1009.0
20260831112704 64 0 0.0 0.0 0.00 0.00 0.00 90 1009.1
20260831111804 64 0 0.0 0.0 0.00 0.00 0.00 90 1009.0
20260831110904 64 0 0.0 0.0 0.00 0.00 0.00 90 1009.1
20260831110025 64 0 0.0 0.0 0.00 0.00 0.00 90 1009.3
20260831105404 64 0 0.0 0.0 0.00 0.00 0.00 90 1009.3
20260831104525 64 0 0.0 0.0 0.00 0.00 0.00 90 1009.3
20260831103625 66 0 0.0 0.0 0.00 0.00 0.00 90 1009.3
20260831102704 66 0 0.0 0.0 0.00 0.00 0.00 90 1009.3
20260831101804 66 0 0.0 0.0 0.00 0.00 0.00 90 1009.2
20260831100925 66 0 0.0 0.0 0.00 0.00 0.00 90 1009.1
20260831100004 65 0 0.0 0.0 0.00 0.00 0.00 90 1009.1
20260831095425 65 245 0.0 1.0 0.00 0.00 0.00 90 1009.1
20260831094504 64 0 0.0 0.0 0.00 0.00 0.00 89 1009.2
20260831093604 64 0 0.0 0.0 0.00 0.00 0.00 88 1009.0
20260831092704 64 0 0.0 0.0 0.00 0.00 0.00 88 1009.0
20260831091804 64 0 0.0 0.0 0.00 0.00 0.00 88 1009.1
20260831090904 64 0 0.0 0.0 0.00 0.00 0.00 88 1009.1
20260831090004 64 0 0.0 0.0 0.00 0.00 0.00 88 1009.0
20260831085404 64 0 0.0 0.0 0.00 0.00 0.00 88 1009.0
20260831084504 65 0 0.0 0.0 0.00 0.00 0.00 88 1009.0
20260831083604 65 0 0.0 0.0 0.00 0.00 0.00 88 1009.1
20260831082704 65 0 0.0 0.0 0.00 0.00 0.00 88 1009.1
20260831081804 66 0 0.0 0.0 0.00 0.00 0.00 87 1009.2
20260831080904 66 0 0.0 0.0 0.00 0.00 0.00 87 1009.1
20260831080004 66 0 0.0 0.0 0.00 0.00 0.00 87 1009.2
20260831075404 66 0 0.0 0.0 0.00 0.00 0.00 87 1009.2